Weather History for KMIE - November, 2011

Change the Weather History Date:

Saturday, November 26, 2011

  Actual Average Record
Temperature  
Mean Temperature 57 °F 38 °F  
Max Temperature 64 °F 46 °F 64 °F (2006)
Min Temperature 50 °F 30 °F 10 °F (1991)
Degree Days  
Heating Degree Days 8 27  
Month to date heating degree days 436 558  
Since 1 July heating degree days 948 1022  
Cooling Degree Days 0 0  
Month to date cooling degree days 0 0  
Year to date cooling degree days 1068 955  
Growing Degree Days 7 (Base 50)    
Moisture  
Dew Point 42 °F    
Average Humidity 57    
Maximum Humidity 68    
Minimum Humidity 46    
Precipitation  
Precipitation T in 0.11 in 0.73 in (1986)
Month to date precipitation 4.60 3.00  
Year to date precipitation 42.20 36.79  
Sea Level Pressure  
Sea Level Pressure 29.97 in    
Wind  
Wind Speed 14 mph (SSW)    
Max Wind Speed 23 mph    
Max Gust Speed 32 mph    
Visibility 10 miles    
Events      
T = Trace of Precipitation, MM = Missing Value Source: NWS Daily Summary

Daily Weather History Graph

Daily Weather History Graph

Search for Another Location

Airport or City:

Trip Planner

Search our weather history database for the weather conditions in past years. The results will help you decide how hot, cold, wet, or windy it might be!

Date:

Astronomy

Nov. 26, 2011 Rise Set
Actual Time 7:39 AM EST 5:18 PM EST
Civil Twilight 7:09 AM EST 5:47 PM EST
Nautical Twilight 6:36 AM EST 6:21 PM EST
Astronomical Twilight 6:03 AM EST 6:53 PM EST
Moon 9:09 AM EST (11/26) 6:48 PM EST (11/26)
Length of Visible Light 10h 38m
Length of Day
9h 38m
Waxing Crescent, 3% of the Moon is Illuminated
Nov 26
Waxing Crescent
Dec 2
First Quarter
Dec 10
Full
Dec 17
Last Quarter
Dec 24
New

Hourly Weather History & Observations

Time (EST) Temp. Dew Point Humidity Pressure Visibility Wind Dir Wind Speed Gust Speed Precip Events Conditions
1:53 AM 52.0 °F 33.1 °F 49% 30.03 in 10.0 mi SSW 12.7 mph 24.2 mph N/A   Clear
2:53 AM 52.0 °F 34.0 °F 50% 30.04 in 10.0 mi SSW 12.7 mph 19.6 mph N/A   Clear
3:53 AM 53.1 °F 35.1 °F 50% 30.04 in 10.0 mi SSW 13.8 mph 19.6 mph N/A   Clear
4:53 AM 52.0 °F 36.0 °F 54% 30.04 in 10.0 mi SSW 12.7 mph 18.4 mph N/A   Clear
5:53 AM 51.1 °F 37.0 °F 59% 30.04 in 10.0 mi SSW 10.4 mph - N/A   Clear
6:53 AM 51.1 °F 39.0 °F 63% 30.04 in 10.0 mi South 10.4 mph - N/A   Clear
7:53 AM 51.1 °F 39.9 °F 66% 30.04 in 10.0 mi South 12.7 mph 19.6 mph N/A   Clear
8:53 AM 52.0 °F 41.0 °F 66% 30.05 in 10.0 mi South 16.1 mph 20.7 mph N/A   Clear
10:53 AM 59.0 °F 44.1 °F 58% 30.04 in 10.0 mi SSW 17.3 mph 29.9 mph N/A   Clear
11:53 AM 61.0 °F 44.1 °F 54% 30.01 in 10.0 mi SSW 16.1 mph 32.2 mph N/A   Clear
12:53 PM 63.0 °F 44.1 °F 50% 29.99 in 10.0 mi SSW 15.0 mph 25.3 mph N/A   Partly Cloudy
1:53 PM 63.0 °F 45.0 °F 52% 29.96 in 10.0 mi SSW 17.3 mph 24.2 mph N/A   Partly Cloudy
2:53 PM 63.0 °F 45.0 °F 52% 29.95 in 10.0 mi SSW 13.8 mph 20.7 mph N/A   Overcast
3:53 PM 62.1 °F 45.0 °F 53% 29.94 in 10.0 mi SSW 13.8 mph 25.3 mph N/A   Mostly Cloudy
4:53 PM 62.1 °F 46.0 °F 56% 29.93 in 10.0 mi South 12.7 mph - N/A   Overcast
5:53 PM 61.0 °F 46.0 °F 58% 29.93 in 10.0 mi SSW 6.9 mph - N/A   Overcast
6:53 PM 61.0 °F 46.0 °F 58% 29.91 in 10.0 mi South 10.4 mph - N/A   Overcast
7:53 PM 61.0 °F 46.0 °F 58% 29.88 in 10.0 mi South 9.2 mph - N/A   Overcast
8:53 PM 60.1 °F 45.0 °F 57% 29.86 in 10.0 mi South 13.8 mph 23.0 mph N/A   Mostly Cloudy
9:53 PM 60.1 °F 46.0 °F 60% 29.86 in 10.0 mi South 13.8 mph 24.2 mph 0.00 in   Overcast
11:53 PM 61.0 °F 45.0 °F 56% 29.83 in 10.0 mi South 18.4 mph 31.1 mph N/A   Overcast